{"data":{"norad_id":68862,"intl_designator":"2026-094Z","name":"STARLINK-37453","alt_names":[],"object_type":"PAYLOAD","status":"ACTIVE","operator":null,"country":"US","launch_date":"2026-04-26","launch_site_code":"AFWTR","launch_vehicle":null,"mission":null,"orbit_class":"UNKNOWN","rcs_meters":null,"size_class":null,"mass_kg":null,"dimensions":null,"purposes":["comms"],"wikipedia_slug":null,"has_3d_model":false,"image_url":null,"decayed_at":null,"tle_current":{"epoch":"2026-05-25T04:00:03.998880Z","epoch_age_seconds":61479,"freshness":"FRESH","line1":"1 68862U 26094Z   26145.16671295  .00009013  00000+0  16731-3 0  9999","line2":"2 68862  97.2847 159.8999 0001103  96.8264  60.4400 15.49170743  5672","mean_motion":15.49170743,"eccentricity":0.0001103,"inclination_deg":97.2847,"raan_deg":159.8999,"arg_perigee_deg":96.8264,"mean_anomaly_deg":60.44,"bstar":0.00016731,"rev_number":567,"period_min":92.95295605773,"perigee_km":418.40093101571,"apogee_km":419.90041267612,"semimajor_km":6797.2876718459,"source":"CELESTRAK","updated_at":"2026-05-25T13:38:22.065544Z"}}}